Location: Utrecht
(52.0917°N, 5.1178°E)
Time: 20:46:08
(UTC+01:00)

Tiangong 1 - Visible Passes

Search period start: 17 December 2017 00:00
Search period end: 27 December 2017 00:00
Orbit: 274 x 301 km, 42.8° (Epoch: 17 December)

Date Brightness Start Highest point End Pass type
(mag) Time Alt. Az. Time Alt. Az. Time Alt. Az.
23 Dec 3.6 07:26:40 10° S 07:27:16 11° S 07:27:53 10° SSE visible
24 Dec 3.5 07:29:41 10° SSW 07:30:23 11° S 07:31:06 10° SSE visible
25 Dec 3.6 07:33:16 10° S 07:33:24 10° S 07:33:32 10° S visible
